Hourly Data Report for October 09, 2015

All times are specified in Local Standard Time (LST). Add 1 hour to adjust for Daylight Saving Time where and when it is observed.

QIKIQTARJUAQ A
NUNAVUT

67°32'48.000" N
64°01'54.000" W
5.50 m
2400577
YVM

Download Data

Hourly Data (October 2015)
Hourly Data Report for October 9, 2015
Temp Definition
°C
Dew Point Temp Definition
°C
Rel Hum Definition
%
Wind Dir Definition
10's deg

Wind Spd Definition
km/h
Visibility Definition
km
Stn Press Definition
kPa
Hmdx Definition


Wind Chill Definition


Weather Definition


TIME
00:00 Legend Double Dagger -7.2 -10.3 79 15 8 16.1 100.44   -11 LegendNANA
01:00 Legend Double Dagger -5.3 -10.1 69 19 17 16.1 100.43   -11 LegendNANA
02:00 Legend Double Dagger -6.0 -10.2 72 LegendMM 4 16.1 100.45   -8 LegendNANA
03:00 Legend Double Dagger -6.5 -10.2 75 17 8 16.1 100.46   -10 LegendNANA
04:00 Legend Double Dagger -6.3 -10.5 72 15 5 16.1 100.48   -9 LegendNANA
05:00 Legend Double Dagger -6.1 -10.3 72 16 5 16.1 100.50   -9 LegendNANA
06:00 Legend Double Dagger -6.1 -9.8 75 15 4 16.1 100.53   -8 LegendNANA
07:00 Legend Double Dagger -6.6 -9.8 78 14 5 16.1 100.54   -9 LegendNANA
08:00 Legend Double Dagger -5.6 -9.1 77 13 8 16.1 100.51   -9 LegendNANA
09:00 Legend Double Dagger -5.4 -8.6 78 13 4 16.1 100.52   -7 LegendNANA
10:00 Legend Double Dagger -5.8 -8.6 81 14 4 16.1 100.51   -8 LegendNANA
11:00 Legend Double Dagger -4.4 -7.2 81 13 4 16.1 100.51   -6 LegendNANA
12:00 Legend Double Dagger -3.7 -6.8 79   0 16.1 100.50     LegendNANA
13:00 Legend Double Dagger -3.6 -6.6 80   0 16.1 100.52     LegendNANA
14:00 Legend Double Dagger -4.3 -6.3 86 16 4 16.1 100.52   -6 Snow
15:00 Legend Double Dagger -4.1 -6.0 87 20 4 14.5 100.53   -6 Snow
16:00 Legend Double Dagger -4.8 -6.3 89 19 5 16.1 100.54   -7 Snow
17:00 Legend Double Dagger -4.5 -6.2 88 17 5 16.1 100.53   -7 Snow
18:00 Legend Double Dagger -4.8 -6.5 88 14 4 16.1 100.52   -7 Snow
19:00 Legend Double Dagger -4.9 -6.7 87 13 8 12.9 100.53   -8 Snow
20:00 Legend Double Dagger -5.4 -7.1 88   0 16.1 100.53     Snow
21:00 Legend Double Dagger -5.3 -7.0 88 15 4 16.1 100.52   -7 Snow
22:00 Legend Double Dagger -5.0 -6.7 88 13 4 16.1 100.50   -7 Snow
23:00 Legend Double Dagger -4.5 -5.9 90 15 4 14.5 100.47   -6 Snow

Notes on Data Quality.

Legend

  • E = Estimated
  • M = Missing
  • NA = Not Available
  • ‡ = Partner data that is not subject to review by the National Climate Archives
Date modified: